Date String (YYYY-MM-DD hh:mm:ss) UTC,Instrument flags,absolute air pressure of the measurement (hPa),sample flow rate (lpm),inlet stack bypass flow (lpm),air temperature of the measurement (°C),ambient temperature measured by the external sensor (°C),aerosol sample conditioner tube jacket temperature (°C),OPC LED temperature (°C),internal box temperature (°C),relative humidity of the measurement (%),span deviation,mass concentration of particles derived from Lorenz-Mie calculation of OPC scattering (μg/m³),mass concentration of particles derived from Lorenz-Mie calculation of OPC scattering (μg/m³),mass concentration of particles derived from Lorenz-Mie calculation of OPC scattering (μg/m³)
DateTimeUTC,F1_M11,P_M11,Q1_M11,Q2_M11,T1_M11,T2_M11,T3_M11,T4_M11,T5_M11,U1_M11,ZSPAN_M11,X0_M11,X2_M11,X1_M11
2024-04-04 17:00:00,SystemResetWarning,0827.0,5.00,000.00,023.8,023.3,000.0,032.1,025.6,014.7,0000.0,0007.32,0002.41,0001.76
2024-04-04 17:01:00,SystemResetWarning,0827.0,5.00,000.00,023.8,023.3,000.0,032.2,025.6,014.3,0000.0,0007.57,0002.40,0001.77
2024-04-04 17:02:00,SystemResetWarning,0827.0,4.99,000.00,023.9,023.3,000.0,032.2,025.6,014.7,0000.0,0007.69,0002.47,0001.77
2024-04-04 17:03:00,SystemResetWarning,0827.0,5.00,000.00,023.9,023.3,000.0,032.2,025.7,014.7,0000.0,0008.28,0002.49,0001.78
2024-04-04 17:04:00,SystemResetWarning,0827.0,4.99,000.00,023.9,023.4,000.0,032.2,025.7,015.1,0000.0,0008.28,0002.53,0001.78
2024-04-04 17:05:00,SystemResetWarning,0827.0,5.00,000.00,023.9,023.4,000.0,032.2,025.7,015.3,0000.0,0007.79,0002.49,0001.79
2024-04-04 17:06:00,SystemResetWarning,0826.9,5.00,000.00,023.9,023.4,000.0,032.2,025.7,015.4,0000.0,0007.82,0002.50,0001.81
2024-04-04 17:07:00,SystemResetWarning,0826.9,4.99,000.00,023.9,023.4,000.0,032.2,025.7,015.7,0000.0,0006.98,0002.52,0001.82
2024-04-04 17:08:00,SystemResetWarning,0826.9,5.00,000.00,023.9,023.4,000.0,032.3,025.7,015.5,0000.0,0007.27,0002.50,0001.82
2024-04-04 17:09:00,SystemResetWarning,0826.9,5.01,000.00,024.0,023.4,000.0,032.3,025.7,015.5,0000.0,0008.76,0002.54,0001.84
2024-04-04 17:10:00,SystemResetWarning,0826.9,5.01,000.00,024.0,023.4,000.0,032.3,025.7,015.8,0000.0,0008.73,0002.54,0001.85
2024-04-04 17:11:00,SystemResetWarning,0826.9,5.00,000.00,024.0,023.5,000.0,032.3,025.8,015.6,0000.0,0008.64,0002.55,0001.87
2024-04-04 17:12:00,SystemResetWarning,0826.9,4.99,000.00,024.0,023.5,000.0,032.3,025.9,016.0,0000.0,0008.44,0002.64,0001.88
2024-04-04 17:13:00,SystemResetWarning,0826.9,4.99,000.00,024.0,023.5,000.0,032.3,025.9,016.0,0000.0,0008.52,0002.67,0001.88
2024-04-04 17:14:00,SystemResetWarning,0826.9,4.99,000.00,024.0,023.5,000.0,032.3,025.9,015.7,0000.0,0008.12,0002.70,0001.89
2024-04-04 17:15:00,SystemResetWarning,0826.9,5.01,000.00,024.1,023.5,000.0,032.4,025.9,015.4,0000.0,0007.78,0002.72,0001.92
2024-04-04 17:16:00,SystemResetWarning,0826.9,5.02,000.00,024.1,023.5,000.0,032.4,025.9,015.2,0000.0,0007.81,0002.80,0001.94
2024-04-04 17:17:00,SystemResetWarning,0826.8,4.99,000.00,024.1,023.5,000.0,032.4,025.9,015.7,0000.0,0007.95,0002.83,0001.96
2024-04-04 17:18:00,SystemResetWarning,0826.8,4.99,000.00,024.1,023.5,000.0,032.4,025.9,015.8,0000.0,0007.99,0002.82,0001.97
2024-04-04 17:19:00,SystemResetWarning,0826.9,5.00,000.00,024.1,023.5,000.0,032.4,025.9,016.1,0000.0,0007.45,0002.84,0001.98
2024-04-04 17:20:00,SystemResetWarning,0826.8,5.00,000.00,024.1,023.6,000.0,032.4,026.0,015.7,0000.0,0005.41,0002.85,0001.98
2024-04-04 17:21:00,SystemResetWarning,0826.8,5.01,000.00,024.1,023.6,000.0,032.4,026.0,015.9,0000.0,0005.46,0002.87,0001.98
2024-04-04 17:22:00,SystemResetWarning,0826.8,5.00,000.00,024.1,023.6,000.0,032.5,026.0,016.1,0000.0,0005.91,0002.87,0001.97
2024-04-04 17:23:00,SystemResetWarning,0826.7,4.99,000.00,024.2,023.6,000.0,032.5,026.0,016.6,0000.0,0006.30,0002.85,0001.97
2024-04-04 17:24:00,SystemResetWarning,0826.8,4.99,000.00,024.2,023.6,000.0,032.5,026.0,016.7,0000.0,0006.92,0002.80,0001.98
2024-04-04 17:25:00,SystemResetWarning,0826.8,5.01,000.00,024.2,023.7,000.0,032.5,026.0,015.9,0000.0,0006.79,0002.76,0001.99
2024-04-04 17:26:00,SystemResetWarning,0826.8,5.00,000.00,024.2,023.7,000.0,032.5,026.0,016.0,0000.0,0006.85,0002.76,0001.99
2024-04-04 17:27:00,SystemResetWarning,0826.8,5.00,000.00,024.2,023.7,000.0,032.5,026.1,016.5,0000.0,0006.73,0002.74,0001.99
2024-04-04 17:28:00,SystemResetWarning,0826.8,5.00,000.00,024.2,023.7,000.0,032.6,026.1,016.0,0000.0,0006.56,0002.72,0001.99
2024-04-04 17:29:00,SystemResetWarning,0826.8,5.01,000.00,024.3,023.7,000.0,032.6,026.1,016.1,0000.0,0006.60,0002.70,0001.99
2024-04-04 17:30:00,SystemResetWarning,0826.8,5.00,000.00,024.3,023.7,000.0,032.6,026.1,016.1,0000.0,0007.27,0002.72,0001.98
2024-04-04 17:31:00,SystemResetWarning,0826.8,5.00,000.00,024.3,023.8,000.0,032.6,026.1,016.0,0000.0,0007.51,0002.74,0001.98
2024-04-04 17:32:00,SystemResetWarning,0826.8,4.99,000.00,024.3,023.8,000.0,032.6,026.1,016.0,0000.0,0007.61,0002.76,0002.01
2024-04-04 17:33:00,SystemResetWarning,0826.8,4.99,000.00,024.3,023.8,000.0,032.6,026.2,016.1,0000.0,0007.91,0002.81,0002.04
2024-04-04 17:34:00,SystemResetWarning,0826.8,5.01,000.00,024.3,023.8,000.0,032.6,026.2,015.7,0000.0,0007.81,0002.78,0002.05
2024-04-04 17:35:00,SystemResetWarning,0826.8,5.01,000.00,024.4,023.8,000.0,032.7,026.2,015.8,0000.0,0007.37,0002.81,0002.07
2024-04-04 17:36:00,SystemResetWarning,0826.8,5.01,000.00,024.4,023.9,000.0,032.7,026.2,016.0,0000.0,0007.36,0002.80,0002.08
2024-04-04 17:37:00,SystemResetWarning,0826.8,4.99,000.00,024.4,023.9,000.0,032.7,026.2,016.3,0000.0,0007.37,0002.82,0002.09
2024-04-04 17:38:00,SystemResetWarning,0826.8,4.99,000.00,024.4,023.9,000.0,032.7,026.3,016.0,0000.0,0007.34,0002.80,0002.08
2024-04-04 17:39:00,SystemResetWarning,0826.7,5.00,000.00,024.4,023.9,000.0,032.7,026.3,016.0,0000.0,0007.82,0002.78,0002.10
2024-04-04 17:40:00,SystemResetWarning,0826.6,5.00,000.00,024.4,023.9,000.0,032.7,026.3,016.3,0000.0,0008.22,0002.79,0002.12
2024-04-04 17:41:00,SystemResetWarning,0826.6,5.00,000.00,024.4,023.9,000.0,032.8,026.3,016.6,0000.0,0007.92,0002.83,0002.14
2024-04-04 17:42:00,SystemResetWarning,0826.6,5.01,000.00,024.5,024.0,000.0,032.8,026.3,016.2,0000.0,0007.74,0002.84,0002.17
2024-04-04 17:43:00,SystemResetWarning,0826.6,5.00,000.00,024.5,024.0,000.0,032.8,026.3,016.5,0000.0,0007.73,0002.86,0002.18
2024-04-04 17:44:00,SystemResetWarning,0826.6,5.00,000.00,024.5,024.0,000.0,032.8,026.4,016.1,0000.0,0007.70,0002.84,0002.19
2024-04-04 17:45:00,SystemResetWarning,0826.6,5.00,000.00,024.5,024.0,000.0,032.8,026.4,016.4,0000.0,0007.34,0002.88,0002.21
2024-04-04 17:46:00,SystemResetWarning,0826.6,5.00,000.00,024.5,024.0,000.0,032.9,026.4,016.3,0000.0,0008.72,0002.90,0002.22
2024-04-04 17:47:00,SystemResetWarning,0826.6,4.99,000.00,024.6,024.1,000.0,032.9,026.4,016.7,0000.0,0008.83,0002.94,0002.24
2024-04-04 17:48:00,SystemResetWarning,0826.6,4.99,000.00,024.6,024.1,000.0,032.9,026.4,016.4,0000.0,0009.07,0002.91,0002.23
2024-04-04 17:49:00,SystemResetWarning,0826.6,5.00,000.00,024.6,024.1,000.0,032.9,026.4,016.0,0000.0,0009.75,0002.97,0002.25
2024-04-04 17:50:00,SystemResetWarning,0826.6,5.00,000.00,024.6,024.1,000.0,032.9,026.4,015.9,0000.0,0009.63,0003.03,0002.27
2024-04-04 17:51:00,SystemResetWarning,0826.5,5.00,000.00,024.6,024.1,000.0,032.9,026.5,016.1,0000.0,0009.07,0003.11,0002.29
2024-04-04 17:52:00,SystemResetWarning,0826.5,5.01,000.00,024.6,024.1,000.0,033.0,026.5,016.2,0000.0,0009.28,0003.10,0002.28
2024-04-04 17:53:00,SystemResetWarning,0826.4,4.99,000.00,024.7,024.2,000.0,033.0,026.5,015.7,0000.0,0009.51,0003.08,0002.28
2024-04-04 17:54:00,SystemResetWarning,0826.4,4.99,000.00,024.7,024.2,000.0,033.0,026.5,015.8,0000.0,0009.97,0003.08,0002.28
2024-04-04 17:55:00,SystemResetWarning,0826.4,5.01,000.00,024.7,024.2,000.0,033.0,026.5,016.0,0000.0,0009.66,0003.06,0002.26
2024-04-04 17:56:00,SystemResetWarning,0826.3,5.01,000.00,024.7,024.2,000.0,033.0,026.6,016.6,0000.0,0009.83,0003.08,0002.29
2024-04-04 17:57:00,SystemResetWarning,0826.4,5.00,000.00,024.7,024.2,000.0,033.0,026.6,016.7,0000.0,0009.85,0003.11,0002.30
2024-04-04 17:58:00,SystemResetWarning,0826.4,5.00,000.00,024.7,024.2,000.0,033.0,026.6,015.1,0000.0,0009.42,0003.09,0002.29
2024-04-04 17:59:00,SystemResetWarning,0826.4,4.99,000.00,024.8,024.2,000.0,033.1,026.6,015.3,0000.0,0009.82,0003.12,0002.32
